Hourly Data Report for April 01, 2021

MIRAMICHI RCS
NEW BRUNSWICK
Current Station Operator: ECCC - MSC

47°00'34.000" N
65°27'54.000" W
33.00 m
8100989
71744
ACQ

Download Data

Hourly Data (April 2021)
Hourly Data Report for April 1, 2021
TIME
LST
Temp Definition
°C
Dew Point Definition
°C
Rel Hum Definition
%
Precip. Amount Definition
mm

Wind Dir Definition
10's deg

Wind Spd Definition
km/h
Visibility Definition
km
Stn Press Definition
kPa
Hmdx Definition


Wind Chill Definition


Weather Definition


00:00 9.6 6.3 80 LegendMM 21 24   100.76     LegendNANA
01:00 9.6 6.2 79 LegendMM 20 23   100.76     LegendNANA
02:00 9.6 6.4 81 LegendMM 21 16   100.73     LegendNANA
03:00 9.2 6.4 83 LegendMM 21 10   100.71     LegendNANA
04:00 8.9 7.1 88 LegendMM 20 9   100.66     LegendNANA
05:00 8.5 7.7 95 LegendMM 18 6   100.58     LegendNANA
06:00 7.9 7.4 97 LegendMM 6 2   100.50     LegendNANA
07:00 8.0 7.7 97 LegendMM 10 8   100.41     LegendNANA
08:00 8.4 8.1 98 LegendMM 9 11   100.29     LegendNANA
09:00 10.0 9.6 97 LegendMM 13 10   100.20     LegendNANA
10:00 10.9 10.3 96 LegendMM 13 15   100.14     LegendNANA
11:00 11.4 10.5 94 LegendMM 13 15   100.04     LegendNANA
12:00 11.6 10.9 96 LegendMM 11 16   99.87     LegendNANA
13:00 12.1 11.3 95 LegendMM 11 22   99.62     LegendNANA
14:00 12.0 11.4 96 LegendMM 13 18   99.48     LegendNANA
15:00 12.6 11.4 92 LegendMM 14 25   99.36     LegendNANA
16:00 12.1 11.3 95 LegendMM 16 22   99.35     LegendNANA
17:00 12.2 11.5 95 LegendMM 16 18   99.31     LegendNANA
18:00 11.9 11.5 97 LegendMM 18 12   99.35     LegendNANA
19:00 11.2 10.2 94 LegendMM 21 20   99.43     LegendNANA
20:00 8.3 7.1 92 LegendMM 27 20   99.54     LegendNANA
21:00 4.2 3.6 96 LegendMM 30 9   99.68     LegendNANA
22:00 3.2 2.4 95 LegendMM 29 11   99.78     LegendNANA
23:00 2.8 1.7 92 LegendMM 30 11   99.88     LegendNANA

Notes on Data Quality.

Legend

  • E = Estimated
  • M = Missing
  • NA = Not Available*
  • [empty] = Indicates an unobserved value
Date modified: